Home   Weather   Sarajevo   Past weeks

Flag for Bosnia-Herzegovina Past Weather in Sarajevo, Bosnia-Herzegovina — Yesterday and Last 2 Weeks

Now
32 °F

Snow. Low clouds.


Feels Like: 27 °F
Forecast: 28 / 51 °F
Wind: 5 mph from Northwest

Location: Sarajevo / Butmir

Current Time: Feb 25, 2017 at 3:30:52 am

Latest Report: Feb 25, 2017 at 2:00 am


Visibility: 2 mi

Pressure: 30.04 "Hg (28.13 "Hg at 526m altitude)

Humidity: 100%

Dew Point: 32 °F

Location of SarajevoLocation

Past Weather in Sarajevo — Graph

°F

Sarajevo Temperature Yesterday

Maximum temperature yesterday: 55 °F (at 11:00 am)
Minimum temperature yesterday: 34 °F (at 12:00 am)
Average temperature yesterday: 50 °F

High & Low Weather Summary for the Past Weeks

 TemperatureHumidityPressure
High59 °F (Feb 17, 1:30 pm)100% (Feb 12, 12:00 am)30.66 "Hg (Feb 12, 12:00 am)
Low21 °F (Feb 15, 5:00 am)28% (Feb 15, 3:00 pm)29.77 "Hg (Feb 24, 7:30 pm)
Average37 °F81%30.25 "Hg
* Reported Feb 10 2:00 am — Feb 25 2:00 am, Sarajevo, Weather by CustomWeather, © 2017

Note: Actual official high and low records may vary slightly from our data, if they occured in-between our weather recording intervals... More about our weather records

Advertising

Sarajevo Weather History for the Previous 24 Hours

Scroll right to see more
 ConditionsComfort  
Time TempWeatherWind HumidityBarometerVisibility
2:00 am
Sat, Feb 25
32 °FSnow. Low clouds.5 mph100%30.04 "Hg1 mi
1:00 am32 °FSnow. Mostly cloudy.7 mph100%30.01 "Hg1 mi
12:00 am34 °FSnow. Mostly cloudy.16 mph93%29.98 "Hg1 mi
11:00 pm
Fri, Feb 24
43 °FLight rain. Partly cloudy.13 mph87%29.86 "HgN/A
10:00 pm52 °FLight rain. Partly cloudy.6 mph82%29.83 "HgN/A
9:30 pm48 °FLight rain. Partly cloudy.2 mph82%29.83 "HgN/A
9:00 pm50 °FLight rain. Partly cloudy.2 mph76%29.80 "HgN/A
8:30 pm50 °FLight rain. Mostly cloudy.2 mph76%29.80 "HgN/A
8:00 pm50 °FPassing clouds.3 mph82%29.80 "HgN/A
7:30 pm50 °FPartly cloudy.3 mph76%29.77 "HgN/A
7:00 pm50 °FPartly cloudy.2 mph76%29.80 "HgN/A
6:30 pm50 °FPartly cloudy.2 mph76%29.80 "HgN/A
6:00 pm52 °FPartly cloudy.2 mph72%29.80 "HgN/A
5:30 pm55 °FPartly cloudy.5 mph59%29.80 "HgN/A
5:00 pm54 °FLight rain. Broken clouds.2 mph67%29.83 "HgN/A
4:30 pm52 °FLight rain. Broken clouds.2 mph77%29.83 "HgN/A
4:00 pm52 °FBroken clouds.5 mph72%29.83 "HgN/A
3:30 pm54 °FBroken clouds.3 mph72%29.80 "HgN/A
3:00 pm54 °FBroken clouds.2 mph72%29.83 "HgN/A
2:30 pm54 °FBroken clouds.3 mph67%29.83 "HgN/A
2:00 pm54 °FBroken clouds.2 mph67%29.83 "HgN/A
1:30 pm54 °FPartly sunny.8 mph67%29.86 "HgN/A
1:00 pm54 °FPartly sunny.12 mph63%29.86 "HgN/A
12:30 pm55 °FBroken clouds.10 mph59%29.86 "HgN/A
12:00 pm55 °FScattered clouds.12 mph59%29.86 "HgN/A
11:30 am55 °FScattered clouds.3 mph59%29.89 "HgN/A
11:00 am55 °FBroken clouds.13 mph55%29.86 "HgN/A
10:30 am54 °FScattered clouds.10 mph63%29.86 "HgN/A
10:00 am54 °FScattered clouds.9 mph63%29.89 "HgN/A
9:30 am54 °FScattered clouds.14 mph58%29.89 "HgN/A
9:00 am52 °FScattered clouds.14 mph62%29.89 "HgN/A
8:30 am54 °FScattered clouds.12 mph58%29.89 "HgN/A
8:00 am50 °FScattered clouds.2 mph67%29.89 "HgN/A
7:30 am50 °FScattered clouds.2 mph67%29.89 "HgN/A
7:00 am48 °FScattered clouds.3 mph71%29.86 "HgN/A
6:30 am50 °FPassing clouds.3 mph67%29.86 "HgN/A
6:00 am50 °FClear.5 mph67%29.86 "Hg10 mi
5:30 am48 °FClear.3 mph62%29.86 "Hg10 mi
5:00 am46 °FClear.3 mph71%29.86 "Hg10 mi
4:00 am46 °FPassing clouds.7 mph76%29.86 "HgN/A
3:00 am36 °FClear.2 mph93%29.89 "Hg5 mi
Weather by CustomWeather, © 2017

See weather overviewHow to use our weather pages